{"data":{"norad_id":66863,"epoch":"2026-05-24T18:06:49.037472Z","epoch_age_seconds":106777,"freshness":"FRESH","line1":"1 66863U 25281R   26144.75473423  .00022432  00000+0  82154-3 0  9994","line2":"2 66863  43.0039 273.4651 0001974 270.2027  89.8599 15.27605665 27829","mean_motion":15.27605665,"eccentricity":0.0001974,"inclination_deg":43.0039,"raan_deg":273.4651,"arg_perigee_deg":270.2027,"mean_anomaly_deg":89.8599,"bstar":0.00082154,"rev_number":2782,"period_min":94.265164956691,"perigee_km":481.61786390734,"apogee_km":484.32662983801,"semimajor_km":6861.1092468727,"source":"CELESTRAK","updated_at":"2026-05-25T13:38:21.343459Z"}}